Volver al catálogo

SL-8 DEB

ActivoLEO
NORAD 19945·DEBRIS·🇷🇺 Russia

Lanzado Jan 26, 1989 desde Plesetsk Cosmodrome

Loading…

Próximos Pases (próximas 24 horas)

TLE

ActualizadoSource: Space-Track

Época: Sep 14, 2026, 01:05 UTC

1 19945U 89005D   26257.04561124  .00001025  00000-0  24181-3 0  9992
2 19945  74.0565 200.7656 0020490 227.6083 258.6340 14.55416834800429

Sigue SL-8 DEB en tiempo real con AllMySat

Download on the App Store